When you browse on this site, cookies collect data to enhance your experience and personalize the content and advertising you see.
Visit our Privacy Policy to learn more. By continuing to use the site, you agree to this use of cookies and data.
  • In Romania
  • List of Countries
  • For 7 days
  • Water Temperature
  • Satellite Maps
  • Weather Map
  • Weather Widgets
  • user-avatar
    Login

    Hourly Weather Arona

    Today, 19 February, Tuesday

    Time Temperature Precipitation Wind Pressure Humidity
    00:00 +8°C° 0 mm 1 mps 740 mmHg 70%
    01:00 +8°C° 0 mm 1 mps 740 mmHg 71%
    02:00 +7°C° 0 mm 1 mps 740 mmHg 71%
    03:00 +7°C° 0 mm 1 mps 740 mmHg 70%
    04:00 +7°C° 0 mm 1 mps 739 mmHg 69%
    05:00 +6°C° 0 mm 1 mps 739 mmHg 67%
    06:00 +6°C° 0 mm 1 mps 739 mmHg 66%
    07:00 +6°C° 0 mm 1 mps 739 mmHg 64%
    08:00 +6°C° 0 mm 0 mps 739 mmHg 60%
    09:00 +8°C° 0 mm 0 mps 739 mmHg 56%
    10:00 +9°C° 0 mm 0 mps 739 mmHg 53%
    11:00 +11°C° 0 mm 1 mps 739 mmHg 53%
    12:00 +12°C° 0 mm 1 mps 739 mmHg 53%
    13:00 +13°C° 0 mm 1 mps 738 mmHg 54%
    14:00 +13°C° 0 mm 1 mps 738 mmHg 56%
    15:00 +13°C° 0 mm 1 mps 738 mmHg 58%
    16:00 +13°C° 0 mm 1 mps 738 mmHg 60%
    17:00 +12°C° 0 mm 1 mps 738 mmHg 66%
    18:00 +9°C° 0 mm 0 mps 739 mmHg 73%
    19:00 +8°C° 0 mm 0 mps 739 mmHg 79%
    20:00 +8°C° 0 mm 0 mps 739 mmHg 79%
    21:00 +8°C° 0 mm 0 mps 740 mmHg 79%
    22:00 +7°C° 0 mm 0 mps 740 mmHg 79%
    23:00 +7°C° 0 mm 0 mps 740 mmHg 79%

    Tomorrow, 20 February, Wednesday

    Time Temperature Precipitation Wind Pressure Humidity
    00:00 +7°C° 0 mm 0 mps 740 mmHg 78%
    01:00 +6°C° 0 mm 0 mps 740 mmHg 78%
    02:00 +6°C° 0 mm 0 mps 740 mmHg 76%
    03:00 +6°C° 0 mm 0 mps 740 mmHg 75%
    04:00 +6°C° 0 mm 0 mps 740 mmHg 73%
    05:00 +5°C° 0 mm 0 mps 740 mmHg 72%
    06:00 +5°C° 0 mm 0 mps 740 mmHg 70%
    07:00 +5°C° 0 mm 0 mps 740 mmHg 69%
    08:00 +6°C° 0 mm 0 mps 740 mmHg 65%
    09:00 +8°C° 0 mm 0 mps 740 mmHg 60%
    10:00 +9°C° 0 mm 0 mps 741 mmHg 56%
    11:00 +11°C° 0 mm 1 mps 740 mmHg 56%
    12:00 +12°C° 0 mm 1 mps 740 mmHg 55%
    13:00 +13°C° 0 mm 1 mps 740 mmHg 54%
    14:00 +13°C° 0 mm 1 mps 740 mmHg 55%
    15:00 +13°C° 0 mm 1 mps 740 mmHg 56%
    16:00 +13°C° 0 mm 1 mps 740 mmHg 57%
    17:00 +12°C° 0 mm 1 mps 740 mmHg 64%
    18:00 +10°C° 0 mm 0 mps 741 mmHg 70%
    19:00 +8°C° 0 mm 0 mps 741 mmHg 76%
    20:00 +8°C° 0 mm 0 mps 742 mmHg 76%
    21:00 +8°C° 0 mm 0 mps 742 mmHg 75%
    22:00 +8°C° 0 mm 0 mps 743 mmHg 74%
    23:00 +7°C° 0 mm 0 mps 743 mmHg 74%

    Day after tomorrow, 21 February, Thursday

    Time Temperature Precipitation Wind Pressure Humidity
    00:00 +7°C° 0 mm 0 mps 743 mmHg 73%
    01:00 +7°C° 0 mm 0 mps 743 mmHg 73%
    02:00 +7°C° 0 mm 0 mps 743 mmHg 71%
    03:00 +7°C° 0 mm 1 mps 743 mmHg 70%
    04:00 +7°C° 0 mm 1 mps 743 mmHg 69%
    05:00 +7°C° 0 mm 1 mps 743 mmHg 67%
    06:00 +7°C° 0 mm 1 mps 743 mmHg 65%
    07:00 +7°C° 0 mm 1 mps 744 mmHg 64%
    08:00 +7°C° 0 mm 0 mps 744 mmHg 60%
    09:00 +9°C° 0 mm 0 mps 744 mmHg 56%
    10:00 +10°C° 0 mm 0 mps 744 mmHg 52%
    11:00 +11°C° 0 mm 0 mps 744 mmHg 51%
    12:00 +13°C° 0 mm 1 mps 744 mmHg 50%
    13:00 +14°C° 0 mm 1 mps 744 mmHg 49%
    14:00 +15°C° 0 mm 1 mps 744 mmHg 50%
    15:00 +15°C° 0 mm 1 mps 743 mmHg 52%
    16:00 +15°C° 0 mm 1 mps 743 mmHg 53%
    17:00 +13°C° 0 mm 1 mps 744 mmHg 59%
    18:00 +12°C° 0 mm 1 mps 744 mmHg 65%
    19:00 +10°C° 0 mm 0 mps 744 mmHg 71%
    20:00 +10°C° 0 mm 0 mps 745 mmHg 70%
    21:00 +10°C° 0 mm 1 mps 745 mmHg 68%
    22:00 +10°C° 0 mm 1 mps 745 mmHg 67%
    23:00 +10°C° 0 mm 1 mps 745 mmHg 65%

    22 February, Friday

    Time Temperature Precipitation Wind Pressure Humidity
    00:00 +10°C° 0 mm 1 mps 745 mmHg 64%
    01:00 +9°C° 0 mm 1 mps 745 mmHg 63%
    02:00 +9°C° 0 mm 1 mps 745 mmHg 62%
    03:00 +9°C° 0 mm 1 mps 745 mmHg 61%
    04:00 +9°C° 0 mm 1 mps 745 mmHg 60%
    05:00 +9°C° 0 mm 1 mps 745 mmHg 59%
    06:00 +9°C° 0 mm 1 mps 744 mmHg 58%
    07:00 +8°C° 0 mm 1 mps 744 mmHg 57%
    08:00 +10°C° 0 mm 1 mps 744 mmHg 52%
    09:00 +12°C° 0 mm 1 mps 744 mmHg 48%
    10:00 +14°C° 0 mm 1 mps 744 mmHg 43%
    11:00 +15°C° 0 mm 1 mps 744 mmHg 40%
    12:00 +18°C° 0 mm 1 mps 744 mmHg 38%
    13:00 +19°C° 0 mm 1 mps 744 mmHg 35%
    14:00 +19°C° 0 mm 1 mps 744 mmHg 36%
    15:00 +19°C° 0 mm 1 mps 743 mmHg 37%
    16:00 +19°C° 0 mm 1 mps 743 mmHg 38%
    17:00 +16°C° 0 mm 1 mps 743 mmHg 43%
    18:00 +15°C° 0 mm 1 mps 744 mmHg 49%
    19:00 +13°C° 0 mm 1 mps 744 mmHg 54%
    20:00 +13°C° 0 mm 1 mps 744 mmHg 55%
    21:00 +12°C° 0 mm 1 mps 745 mmHg 56%
    22:00 +11°C° 0 mm 1 mps 745 mmHg 56%
    23:00 +11°C° 0 mm 1 mps 745 mmHg 57%

    23 February, Saturday

    Time Temperature Precipitation Wind Pressure Humidity
    00:00 +11°C° 0 mm 1 mps 745 mmHg 58%
    01:00 +10°C° 0 mm 1 mps 746 mmHg 59%
    02:00 +10°C° 0 mm 1 mps 745 mmHg 59%
    03:00 +10°C° 0 mm 1 mps 745 mmHg 59%
    04:00 +9°C° 0 mm 1 mps 745 mmHg 59%
    05:00 +9°C° 0 mm 1 mps 745 mmHg 61%
    06:00 +9°C° 0 mm 1 mps 745 mmHg 62%
    07:00 +8°C° 0 mm 1 mps 745 mmHg 64%
    08:00 +9°C° 0 mm 1 mps 745 mmHg 65%
    09:00 +10°C° 0 mm 1 mps 745 mmHg 66%
    10:00 +11°C° 0 mm 1 mps 745 mmHg 67%
    11:00 +12°C° 0 mm 2 mps 745 mmHg 66%
    12:00 +12°C° 0 mm 2 mps 745 mmHg 64%
    13:00 +13°C° 0 mm 2 mps 745 mmHg 62%
    14:00 +13°C° 0 mm 2 mps 744 mmHg 63%
    15:00 +13°C° 0 mm 2 mps 744 mmHg 63%
    16:00 +13°C° 0 mm 2 mps 743 mmHg 63%
    17:00 +12°C° 0 mm 1 mps 744 mmHg 68%
    18:00 +11°C° 0 mm 1 mps 744 mmHg 73%
    19:00 +10°C° 0 mm 1 mps 744 mmHg 79%
    20:00 +9°C° 0 mm 1 mps 745 mmHg 80%
    21:00 +9°C° 0 mm 1 mps 745 mmHg 81%
    22:00 +9°C° 0 mm 1 mps 745 mmHg 83%
    23:00 +8°C° 0 mm 1 mps 745 mmHg 84%

    24 February, Sunday

    Time Temperature Precipitation Wind Pressure Humidity
    00:00 +8°C° 0 mm 1 mps 745 mmHg 85%
    01:00 +8°C° 0 mm 1 mps 744 mmHg 86%
    02:00 +7°C° 0 mm 1 mps 744 mmHg 86%
    03:00 +7°C° 0 mm 1 mps 744 mmHg 86%
    04:00 +7°C° 0 mm 1 mps 744 mmHg 87%
    05:00 +7°C° 0 mm 1 mps 744 mmHg 86%
    06:00 +7°C° 0 mm 1 mps 744 mmHg 86%
    07:00 +6°C° 0 mm 1 mps 744 mmHg 85%
    08:00 +7°C° 0 mm 1 mps 744 mmHg 81%
    09:00 +8°C° 0 mm 1 mps 744 mmHg 77%
    10:00 +7°C° 0 mm 2 mps 744 mmHg 73%
    11:00 +8°C° 0 mm 2 mps 744 mmHg 69%
    12:00 +8°C° 0 mm 2 mps 744 mmHg 65%
    13:00 +9°C° 0 mm 2 mps 744 mmHg 61%
    14:00 +9°C° 0 mm 2 mps 744 mmHg 61%
    15:00 +11°C° 0 mm 1 mps 743 mmHg 60%
    16:00 +11°C° 0 mm 1 mps 743 mmHg 59%
    17:00 +10°C° 0 mm 1 mps 744 mmHg 64%
    18:00 +9°C° 0 mm 1 mps 744 mmHg 68%
    19:00 +8°C° 0 mm 1 mps 745 mmHg 72%
    20:00 +8°C° 0 mm 1 mps 745 mmHg 74%
    21:00 +7°C° 0 mm 1 mps 745 mmHg 76%
    22:00 +6°C° 0 mm 0 mps 746 mmHg 77%
    23:00 +6°C° 0 mm 0 mps 746 mmHg 79%
    Show more